User: anonymous   Login
Location: Haliburton Scout Reserve
(45.0900°N, 78.3200°W)
Time: 22:25:42
(UTC-04:00)
Language:

DX 1 - Orbit

View from above orbital plane
View from above orbital plane
View from above satellite
View from above satellite

Ground track
Ground track

The orbit data is extracted from the following two-line orbital elements,

1 40071U 14037C   22138.49117360  .00000944  00000-0  12687-3 0  9998
2 40071  98.4145   5.7353 0009477  58.0449 302.1705 14.81814879424903
Epoch (UTC): 18 May 2022 11:47:17
Eccentricity: 0.0009477
inclination: 98.4145°
perigee height: 617 km
apogee height: 630 km
right ascension of ascending node: 5.7353°
argument of perigee: 58.0449°
revolutions per day: 14.81814879
mean anomaly at epoch: 302.1705°
orbit number at epoch: 42490

The dashed part of the orbit path shows where the satellite is in the earth's shadow,  

DLR